Location: Drocourt
(49.0571°N, 1.7669°E)
Time: 23:51:22
(UTC+00:00)

Cosmos 2208 Rocket - Pass Details

Date: 09 February 2023
Orbit: 753 x 805 km, 74.0° (Epoch: 01 April)

Event Time Altitude Azimuth Distance (km) Brightness Sun altitude
Rises 18:37:33 0° 338° (NNW) 3,219 7.5 -15.9°
Reaches altitude 10° 18:39:56 10° 341° (NNW) 2,292 6.6 -16.3°
Maximum altitude 18:45:06 66° 64° (ENE) 828 3.9 -17.1°
Drops below altitude 10° 18:50:17 10° 147° (SSE) 2,298 6.2 -18.0°
Enters shadow 18:50:20 10° 147° (SSE) 2,317 6.2 -18.0°
